sat.trackr.live / text

‹ back to catalog

KUIPER-00431

NORAD 68936 · 2026-098T

PAYLOAD ACTIVE UNKNOWN

§ Identity

Operator
Country
US
Launch date
2026-04-30
Launch site
FRGUI
Launch vehicle
Mass (kg)
RCS (m²)

External: N2YO · Heavens-Above · Gunter

§ Orbital elements

Epoch: 2026-05-24T12:21:59.357376Z

Period
94.16 min
Inclination
51.8750°
Eccentricity
0.0016645
Mean motion
15.29365521 rev/d
Perigee alt
466.3 km
Apogee alt
489.1 km
Semi-major
6,855.8 km
B*
2.4147e-4
RAAN
182.3403°
Arg perigee
64.9183°
Mean anomaly
295.3526°
Rev number
370

§ Raw data

KUIPER-004311 68936U 26098T   26144.51527034  .00006644  00000+0  24147-3 0  99912 68936  51.8750 182.3403 0016645  64.9183 295.3526 15.29365521  3705

JSON: /api/v1/satellites/68936 · /tle

For live sub-satellite position, see the globe view (requires WebGL).

§ Visibility from observer

Set your observer location to see the next 7 days of passes ≥ 10°. The values pass through the URL so the page stays shareable.

No JS? Fill the form by hand. The geolocation button needs JavaScript.